When you browse on this site, cookies collect data to enhance your experience and personalize the content and advertising you see.
Visit our Privacy Policy to learn more. By continuing to use the site, you agree to this use of cookies and data.
  • In France
  • List of Countries
  • For 7 days
  • Water Temperature
  • Weather Map
  • Weather Widgets
  • user-avatar
    Login

    Hourly Weather Kamloops

    Today, 7 April, Tuesday

    Time Temperature Precipitation Wind Pressure Humidity
    00:00 +1°C° 0 mm 1 mps 702 mmHg 92%
    01:00 0°C° 0 mm 1 mps 702 mmHg 93%
    02:00 0°C° 0.1 mm 1 mps 703 mmHg 94%
    03:00 +1°C° 0.1 mm 1 mps 703 mmHg 95%
    04:00 0°C° 0.1 mm 0 mps 704 mmHg 96%
    05:00 0°C° 0.1 mm 0 mps 704 mmHg 94%
    06:00 +2°C° 0.1 mm 1 mps 705 mmHg 92%
    07:00 +2°C° 0.1 mm 1 mps 705 mmHg 91%
    08:00 +4°C° 0 mm 1 mps 705 mmHg 86%
    09:00 +5°C° 0 mm 1 mps 705 mmHg 82%
    10:00 +7°C° 0 mm 1 mps 706 mmHg 77%
    11:00 +7°C° 0.1 mm 1 mps 706 mmHg 73%
    12:00 +8°C° 0.1 mm 1 mps 706 mmHg 70%
    13:00 +8°C° 0.1 mm 2 mps 706 mmHg 66%
    14:00 +8°C° 0.1 mm 2 mps 707 mmHg 66%
    15:00 +8°C° 0.1 mm 2 mps 707 mmHg 65%
    16:00 +8°C° 0.1 mm 2 mps 707 mmHg 64%
    17:00 +6°C° 0 mm 2 mps 708 mmHg 69%
    18:00 +5°C° 0 mm 1 mps 708 mmHg 75%
    19:00 +3°C° 0 mm 1 mps 708 mmHg 80%
    20:00 +2°C° 0 mm 1 mps 709 mmHg 80%
    21:00 +2°C° 0 mm 1 mps 710 mmHg 81%
    22:00 +1°C° 0 mm 1 mps 711 mmHg 81%
    23:00 +1°C° 0 mm 1 mps 711 mmHg 81%

    Tomorrow, 8 April, Wednesday

    Time Temperature Precipitation Wind Pressure Humidity
    00:00 -1°C° 0 mm 0 mps 711 mmHg 81%
    01:00 -1°C° 0 mm 0 mps 711 mmHg 81%
    02:00 -1°C° 0 mm 0 mps 711 mmHg 81%
    03:00 -1°C° 0 mm 0 mps 712 mmHg 81%
    04:00 -2°C° 0 mm 0 mps 712 mmHg 81%
    05:00 -1°C° 0 mm 0 mps 712 mmHg 78%
    06:00 0°C° 0 mm 0 mps 712 mmHg 76%
    07:00 +1°C° 0 mm 0 mps 712 mmHg 73%
    08:00 +3°C° 0 mm 0 mps 712 mmHg 67%
    09:00 +5°C° 0 mm 0 mps 712 mmHg 61%
    10:00 +7°C° 0 mm 0 mps 712 mmHg 55%
    11:00 +8°C° 0 mm 0 mps 711 mmHg 53%
    12:00 +10°C° 0 mm 1 mps 711 mmHg 51%
    13:00 +11°C° 0 mm 1 mps 711 mmHg 48%
    14:00 +10°C° 0 mm 1 mps 711 mmHg 49%
    15:00 +10°C° 0 mm 1 mps 710 mmHg 50%
    16:00 +10°C° 0 mm 1 mps 710 mmHg 51%
    17:00 +8°C° 0 mm 1 mps 710 mmHg 58%
    18:00 +5°C° 0 mm 0 mps 710 mmHg 65%
    19:00 +3°C° 0 mm 0 mps 710 mmHg 73%
    20:00 +3°C° 0 mm 0 mps 710 mmHg 74%
    21:00 +2°C° 0 mm 0 mps 710 mmHg 76%
    22:00 +2°C° 0 mm 0 mps 710 mmHg 78%
    23:00 +2°C° 0 mm 0 mps 710 mmHg 79%

    Day after tomorrow, 9 April, Thursday

    Time Temperature Precipitation Wind Pressure Humidity
    00:00 +2°C° 0 mm 0 mps 709 mmHg 80%
    01:00 +1°C° 0 mm 0 mps 709 mmHg 81%
    02:00 +1°C° 0 mm 0 mps 709 mmHg 82%
    03:00 +1°C° 0 mm 0 mps 709 mmHg 84%
    04:00 +1°C° 0 mm 0 mps 709 mmHg 85%
    05:00 +2°C° 0 mm 0 mps 708 mmHg 82%
    06:00 +3°C° 0 mm 0 mps 708 mmHg 80%
    07:00 +3°C° 0 mm 0 mps 708 mmHg 77%
    08:00 +6°C° 0 mm 0 mps 707 mmHg 71%
    09:00 +8°C° 0 mm 0 mps 707 mmHg 65%
    10:00 +10°C° 0 mm 0 mps 706 mmHg 58%
    11:00 +12°C° 0 mm 0 mps 706 mmHg 56%
    12:00 +13°C° 0 mm 0 mps 706 mmHg 55%
    13:00 +14°C° 0 mm 0 mps 706 mmHg 53%
    14:00 +14°C° 0 mm 0 mps 705 mmHg 54%
    15:00 +14°C° 0 mm 0 mps 705 mmHg 55%
    16:00 +14°C° 0 mm 0 mps 704 mmHg 57%
    17:00 +12°C° 0 mm 0 mps 704 mmHg 65%
    18:00 +9°C° 0 mm 0 mps 704 mmHg 73%
    19:00 +7°C° 0 mm 0 mps 704 mmHg 81%
    20:00 +7°C° 0 mm 1 mps 705 mmHg 83%
    21:00 +7°C° 0 mm 1 mps 705 mmHg 85%
    22:00 +6°C° 0 mm 1 mps 705 mmHg 87%
    23:00 +5°C° 0 mm 1 mps 705 mmHg 88%

    10 April, Friday

    Time Temperature Precipitation Wind Pressure Humidity
    00:00 +5°C° 0 mm 1 mps 705 mmHg 89%
    01:00 +3°C° 0 mm 0 mps 705 mmHg 91%
    02:00 +3°C° 0 mm 0 mps 705 mmHg 91%
    03:00 +3°C° 0 mm 0 mps 706 mmHg 92%
    04:00 +3°C° 0 mm 0 mps 706 mmHg 92%
    05:00 +5°C° 0 mm 1 mps 706 mmHg 90%
    06:00 +5°C° 0 mm 1 mps 706 mmHg 87%
    07:00 +6°C° 0 mm 1 mps 706 mmHg 84%
    08:00 +8°C° 0 mm 1 mps 706 mmHg 78%
    09:00 +10°C° 0 mm 1 mps 706 mmHg 71%
    10:00 +12°C° 0 mm 1 mps 706 mmHg 65%
    11:00 +13°C° 0 mm 2 mps 706 mmHg 62%
    12:00 +14°C° 0 mm 2 mps 706 mmHg 58%
    13:00 +14°C° 0 mm 2 mps 706 mmHg 55%
    14:00 +14°C° 0 mm 2 mps 706 mmHg 55%
    15:00 +14°C° 0 mm 2 mps 705 mmHg 55%
    16:00 +14°C° 0 mm 2 mps 705 mmHg 54%
    17:00 +12°C° 0 mm 2 mps 705 mmHg 63%
    18:00 +9°C° 0 mm 2 mps 705 mmHg 71%
    19:00 +8°C° 0 mm 1 mps 705 mmHg 79%
    20:00 +7°C° 0 mm 1 mps 705 mmHg 82%
    21:00 +6°C° 0 mm 2 mps 706 mmHg 85%
    22:00 +5°C° 0 mm 2 mps 706 mmHg 88%
    23:00 +5°C° 0 mm 2 mps 706 mmHg 90%

    11 April, Saturday

    Time Temperature Precipitation Wind Pressure Humidity
    00:00 +5°C° 0 mm 1 mps 706 mmHg 92%
    01:00 +5°C° 0 mm 1 mps 706 mmHg 94%
    02:00 +3°C° 0 mm 2 mps 707 mmHg 92%
    03:00 +3°C° 0 mm 2 mps 707 mmHg 90%
    04:00 +2°C° 0 mm 2 mps 707 mmHg 89%
    05:00 +2°C° 0 mm 3 mps 708 mmHg 82%
    06:00 +2°C° 0 mm 3 mps 709 mmHg 75%
    07:00 +2°C° 0 mm 3 mps 709 mmHg 68%
    08:00 +4°C° 0 mm 4 mps 710 mmHg 60%
    09:00 +5°C° 0 mm 5 mps 711 mmHg 51%
    10:00 +7°C° 0 mm 5 mps 711 mmHg 42%
    11:00 +7°C° 0 mm 5 mps 712 mmHg 40%
    12:00 +8°C° 0 mm 5 mps 712 mmHg 39%
    13:00 +10°C° 0 mm 4 mps 712 mmHg 38%
    14:00 +10°C° 0 mm 4 mps 712 mmHg 38%
    15:00 +10°C° 0 mm 3 mps 712 mmHg 39%
    16:00 +10°C° 0 mm 3 mps 712 mmHg 39%
    17:00 +8°C° 0 mm 2 mps 712 mmHg 47%
    18:00 +6°C° 0 mm 2 mps 712 mmHg 55%
    19:00 +5°C° 0 mm 1 mps 712 mmHg 64%
    20:00 +4°C° 0 mm 1 mps 712 mmHg 66%
    21:00 +3°C° 0 mm 1 mps 713 mmHg 68%
    22:00 +2°C° 0 mm 0 mps 713 mmHg 70%
    23:00 +2°C° 0 mm 0 mps 713 mmHg 70%

    12 April, Sunday

    Time Temperature Precipitation Wind Pressure Humidity
    00:00 +1°C° 0 mm 0 mps 713 mmHg 70%
    01:00 +1°C° 0 mm 0 mps 713 mmHg 71%
    02:00 +1°C° 0 mm 0 mps 712 mmHg 71%
    03:00 +1°C° 0 mm 0 mps 712 mmHg 72%
    04:00 +1°C° 0 mm 0 mps 712 mmHg 72%
    05:00 +2°C° 0 mm 0 mps 712 mmHg 68%
    06:00 +2°C° 0 mm 0 mps 712 mmHg 64%
    07:00 +3°C° 0 mm 0 mps 712 mmHg 60%
    08:00 +6°C° 0 mm 0 mps 712 mmHg 53%
    09:00 +8°C° 0 mm 0 mps 712 mmHg 46%
    10:00 +11°C° 0 mm 0 mps 711 mmHg 39%
    11:00 +11°C° 0 mm 0 mps 711 mmHg 37%
    12:00 +12°C° 0 mm 0 mps 710 mmHg 35%
    13:00 +13°C° 0 mm 0 mps 710 mmHg 34%
    14:00 +13°C° 0 mm 0 mps 710 mmHg 34%
    15:00 +12°C° 0 mm 0 mps 709 mmHg 34%
    16:00 +12°C° 0 mm 0 mps 709 mmHg 34%
    17:00 +11°C° 0 mm 0 mps 709 mmHg 40%
    18:00 +9°C° 0 mm 0 mps 708 mmHg 46%
    19:00 +7°C° 0 mm 0 mps 708 mmHg 52%
    20:00 +7°C° 0 mm 0 mps 708 mmHg 55%
    21:00 +6°C° 0 mm 0 mps 708 mmHg 58%
    22:00 +6°C° 0 mm 1 mps 709 mmHg 61%
    23:00 +6°C° 0 mm 1 mps 709 mmHg 64%
    Show more